Weather History for KRUT - January, 2013

Change the Weather History Date:

Friday, January 11, 2013

  Actual Average Record
Temperature  
Mean Temperature 29 °F -  
Max Temperature 37 °F - 55 °F (2014)
Min Temperature 21 °F - -25 °F (1968)
Degree Days  
Heating Degree Days 36    
Month to date heating degree days 476  
Since 1 July heating degree days 2886  
Cooling Degree Days 0    
Month to date cooling degree days 0  
Year to date cooling degree days 0  
Moisture  
Dew Point 23 °F    
Average Humidity 67    
Maximum Humidity 89    
Minimum Humidity 44    
Precipitation  
Precipitation 0.02 in - 1.12 in (2014)
Month to date precipitation 0.02  
Year to date precipitation 0.02  
Sea Level Pressure  
Sea Level Pressure 30.30 in    
Wind  
Wind Speed 11 mph (SE)    
Max Wind Speed 18 mph    
Max Gust Speed 25 mph    
Visibility 10 miles    
Events      
T = Trace of Precipitation, MM = Missing Value Source: NWS Daily Summary

Daily Weather History Graph

Daily Weather History Graph

Search for Another Location

Airport or City:

Trip Planner

Search our weather history database for the weather conditions in past years. The results will help you decide how hot, cold, wet, or windy it might be!

Date:

Astronomy

Jan. 11, 2013 Rise Set
Actual Time 7:23 AM EST 4:36 PM EST
Civil Twilight 6:51 AM EST 5:08 PM EST
Nautical Twilight 6:15 AM EST 5:44 PM EST
Astronomical Twilight 5:41 AM EST 6:18 PM EST
Moon 6:53 AM EST (1/11) 4:53 PM EST (1/11)
Length of Visible Light 10h 17m
Length of Day
9h 13m
Waning Crescent, 0% of the Moon is Illuminated
Jan 11
Waning Crescent
Jan 11
New
Jan 18
First Quarter
Jan 26
Full
Feb 3
Last Quarter

Hourly Weather History & Observations

Time (EST) Temp. Windchill Dew Point Humidity Pressure Visibility Wind Dir Wind Speed Gust Speed Precip Events Conditions
12:15 AM 26.6 °F - 21.2 °F 80% 30.53 in 10.0 mi Calm Calm - N/A   Clear
12:35 AM 26.6 °F 21.2 °F 19.4 °F 74% 30.53 in 10.0 mi East 4.6 mph - N/A   Clear
12:55 AM 24.8 °F 16.9 °F 19.4 °F 80% 30.52 in 10.0 mi ESE 6.9 mph - N/A   Clear
1:15 AM 24.8 °F 17.9 °F 21.2 °F 86% 30.50 in 10.0 mi SSE 5.8 mph - N/A   Clear
1:35 AM 24.8 °F 15.3 °F 19.4 °F 80% 30.48 in 10.0 mi SE 9.2 mph - N/A   Clear
1:55 AM 24.8 °F 15.3 °F 19.4 °F 80% 30.48 in 10.0 mi SSE 9.2 mph - N/A   Clear
2:15 AM 24.8 °F 15.3 °F 19.4 °F 80% 30.47 in 10.0 mi SE 9.2 mph - N/A   Clear
2:35 AM 24.8 °F 15.3 °F 19.4 °F 80% 30.46 in 10.0 mi ESE 9.2 mph - N/A   Clear
2:55 AM 24.8 °F 17.9 °F 17.6 °F 74% 30.46 in 10.0 mi SE 5.8 mph - N/A   Clear
3:35 AM 23.0 °F 13.1 °F 19.4 °F 86% 30.45 in 10.0 mi SE 9.2 mph - N/A   Clear
3:55 AM 23.0 °F 12.4 °F 17.6 °F 80% 30.44 in 10.0 mi ESE 10.4 mph - N/A   Clear
4:15 AM 21.2 °F 14.9 °F 19.4 °F 93% 30.43 in 10.0 mi SE 4.6 mph - N/A   Clear
4:35 AM 24.8 °F 15.3 °F 19.4 °F 80% 30.44 in 10.0 mi SE 9.2 mph - N/A   Clear
4:55 AM 24.8 °F 16.9 °F 17.6 °F 74% 30.45 in 10.0 mi SE 6.9 mph - N/A   Clear
5:15 AM 23.0 °F 17.0 °F 19.4 °F 86% 30.44 in 10.0 mi South 4.6 mph - N/A   Clear
5:55 AM 23.0 °F 17.0 °F 19.4 °F 86% 30.43 in 10.0 mi SSE 4.6 mph - N/A   Clear
6:15 AM 24.8 °F 17.9 °F 19.4 °F 80% 30.44 in 10.0 mi SE 5.8 mph - N/A   Clear
6:35 AM 24.8 °F 12.9 °F 19.4 °F 80% 30.43 in 10.0 mi SE 13.8 mph - N/A   Clear
6:55 AM 26.6 °F 21.2 °F 19.4 °F 74% 30.43 in 10.0 mi SSE 4.6 mph - N/A   Clear
7:15 AM 26.6 °F 20.0 °F 21.2 °F 80% 30.42 in 10.0 mi South 5.8 mph - N/A   Clear
7:35 AM 26.6 °F 18.2 °F 19.4 °F 74% 30.42 in 10.0 mi South 8.1 mph - N/A   Clear
8:15 AM 28.4 °F 24.6 °F 19.4 °F 69% 30.41 in 10.0 mi SSW 3.5 mph - N/A   Clear
8:35 AM 28.4 °F 21.2 °F 19.4 °F 69% 30.40 in 10.0 mi South 6.9 mph - N/A   Clear
8:55 AM 28.4 °F 19.7 °F 19.4 °F 69% 30.39 in 10.0 mi South 9.2 mph - N/A   Clear
9:15 AM 32.0 °F 24.8 °F 21.2 °F 64% 30.37 in 10.0 mi South 8.1 mph - N/A   Clear
9:35 AM 33.8 °F 24.8 °F 19.4 °F 56% 30.37 in 10.0 mi South 12.7 mph - N/A   Clear
9:55 AM 33.8 °F 25.8 °F 19.4 °F 56% 30.37 in 10.0 mi SSE 10.4 mph - N/A   Clear
10:35 AM 35.6 °F 28.0 °F 19.4 °F 52% 30.34 in 10.0 mi South 10.4 mph - N/A   Clear
10:55 AM 35.6 °F 28.0 °F 19.4 °F 52% 30.33 in 10.0 mi SSE 10.4 mph - N/A   Clear
11:15 AM 35.6 °F 27.5 °F 17.6 °F 48% 30.33 in 10.0 mi South 11.5 mph - N/A   Partly Cloudy
11:35 AM 37.4 °F 30.8 °F 17.6 °F 45% 30.32 in 10.0 mi South 9.2 mph - N/A   Mostly Cloudy
11:55 AM 37.4 °F 30.3 °F 19.4 °F 48% 30.32 in 10.0 mi SE 10.4 mph - N/A   Overcast
12:15 PM 37.4 °F 30.3 °F 19.4 °F 48% 30.30 in 10.0 mi SSE 10.4 mph - N/A   Overcast
12:55 PM 37.4 °F 27.5 °F 17.6 °F 45% 30.26 in 10.0 mi ESE 18.4 mph - N/A   Overcast
1:15 PM 37.4 °F 27.8 °F 17.6 °F 45% 30.25 in 10.0 mi ESE 17.3 mph 24.2 mph N/A   Overcast
1:35 PM 37.4 °F 27.8 °F 17.6 °F 45% 30.24 in 10.0 mi SE 17.3 mph 24.2 mph N/A   Overcast
1:55 PM 37.4 °F 28.5 °F 19.4 °F 48% 30.25 in 10.0 mi ESE 15.0 mph 23.0 mph N/A   Overcast
2:35 PM 37.4 °F 27.2 °F 19.4 °F 48% 30.21 in 10.0 mi SE 19.6 mph 25.3 mph N/A   Overcast
3:15 PM 35.6 °F 28.0 °F 19.4 °F 52% 30.22 in 10.0 mi South 10.4 mph - N/A   Overcast
3:35 PM 35.6 °F 25.2 °F 21.2 °F 56% 30.22 in 10.0 mi ESE 18.4 mph 21.9 mph N/A   Overcast
3:55 PM 35.6 °F 28.0 °F 21.2 °F 56% 30.22 in 10.0 mi SSE 10.4 mph - N/A   Overcast
4:15 PM 35.6 °F 28.0 °F 24.8 °F 65% 30.22 in 10.0 mi ESE 10.4 mph - N/A   Overcast
4:35 PM 33.8 °F 24.8 °F 26.6 °F 75% 30.20 in 10.0 mi SE 12.7 mph 18.4 mph N/A   Overcast
4:55 PM 33.8 °F 23.5 °F 26.6 °F 75% 30.19 in 10.0 mi ESE 16.1 mph - 0.01 in   Overcast
5:15 PM 33.8 °F 24.8 °F 26.6 °F 75% 30.19 in 10.0 mi SE 12.7 mph - 0.01 in   Overcast
5:35 PM 33.8 °F 23.5 °F 26.6 °F 75% 30.17 in 10.0 mi ESE 16.1 mph 21.9 mph 0.01 in   Overcast
5:55 PM 33.8 °F 23.5 °F 26.6 °F 75% 30.17 in 10.0 mi ESE 16.1 mph - 0.01 in   Overcast
6:15 PM 33.8 °F 23.9 °F 28.4 °F 81% 30.17 in 10.0 mi ESE 15.0 mph - N/A   Overcast
6:35 PM 33.8 °F 24.3 °F 28.4 °F 81% 30.16 in 10.0 mi SE 13.8 mph 18.4 mph N/A   Overcast
6:55 PM 33.8 °F 23.5 °F 30.2 °F 87% 30.15 in 10.0 mi ESE 16.1 mph 21.9 mph N/A   Overcast
7:15 PM 35.6 °F 24.5 °F 30.2 °F 81% 30.13 in 10.0 mi ESE 20.7 mph 25.3 mph N/A   Overcast
7:35 PM 35.6 °F 24.8 °F 30.2 °F 81% 30.13 in 10.0 mi ESE 19.6 mph 25.3 mph N/A   Overcast
8:15 PM 35.6 °F 25.9 °F 30.2 °F 81% 30.13 in 10.0 mi ESE 16.1 mph 23.0 mph N/A   Overcast
8:35 PM 35.6 °F 25.5 °F 30.2 °F 81% 30.12 in 10.0 mi ESE 17.3 mph 24.2 mph N/A   Overcast
8:55 PM 35.6 °F 25.2 °F 32.0 °F 87% 30.12 in 10.0 mi ESE 18.4 mph 25.3 mph N/A   Overcast
9:15 PM 35.6 °F 26.2 °F 30.2 °F 81% 30.13 in 10.0 mi ESE 15.0 mph 21.9 mph N/A   Overcast
9:35 PM 35.6 °F 26.2 °F 30.2 °F 81% 30.14 in 10.0 mi ESE 15.0 mph - N/A   Overcast
9:55 PM 33.8 °F 22.8 °F 30.2 °F 87% 30.13 in 10.0 mi ESE 18.4 mph - N/A   Overcast
10:55 PM 35.6 °F 26.6 °F 32.0 °F 87% 30.11 in 10.0 mi ESE 13.8 mph - N/A   Overcast
11:15 PM 35.6 °F 25.9 °F 32.0 °F 87% 30.10 in 10.0 mi ESE 16.1 mph 23.0 mph N/A   Overcast
11:35 PM 35.6 °F 26.6 °F 32.0 °F 87% 30.11 in 10.0 mi ESE 13.8 mph 19.6 mph N/A   Overcast
11:55 PM 35.6 °F 25.9 °F 32.0 °F 87% 30.10 in 10.0 mi ESE 16.1 mph - N/A   Overcast